Location: London
(42.9830°N, 81.2500°W)
Time: 11:12:39
(UTC-05:00)

Amateur Radio Satellites - All Passes

Search period start: 04 December 2016 10:42
Search period end: 05 December 2016 10:42
Location: London, 42.9830°N, 81.2500°W

Satellite Date Start Highest point End Downlink Frequencies (MHz)
Time Altitude Azimuth
ESTCUBE 1 04 Dec 10:45:06 10:47:22 14° 90° (E) 10:49:37 437.505/2401.250
DUCHIFAT 1 04 Dec 10:45:36 10:49:30 36° 70° (ENE) 10:53:26 145.980
UWE-3 04 Dec 10:46:06 10:47:29 11° 300° (WNW) 10:48:52 435.000/436.395/437.385
DANDE 04 Dec 10:53:26 10:58:24 83° 100° (E) 11:02:07 436.750
UNISAT 6 04 Dec 10:54:45 10:58:14 20° 267° (W) 11:01:42 437.425
POPSAT HIP 1 04 Dec 11:01:19 11:05:33 62° 74° (ENE) 11:09:48 437.405
PCSat 04 Dec 11:03:17 11:06:46 18° 105° (ESE) 11:10:16 145.827
RS-15 04 Dec 11:28:06 11:38:28 31° 338° (NNW) 11:49:04 29.354- 29.394
TIGRISAT 04 Dec 11:28:25 11:29:15 10° 272° (W) 11:30:04 435.000
CUBEBUG 1 04 Dec 11:30:58 11:34:40 25° 95° (E) 11:38:20 437.445
Cosmos 2499 04 Dec 11:31:13 11:39:27 44° 72° (ENE) 11:47:09 435.465 / 435.565
VELOX 1 04 Dec 11:36:45 11:40:01 20° 93° (E) 11:43:16 145.980
JAS-2 04 Dec 11:38:47 11:45:09 47° 260° (W) 11:50:50 435.910
HUMSAT D 04 Dec 11:40:31 11:43:39 22° 293° (WNW) 11:46:46 437.325/437.525
BUGSAT 1 04 Dec 11:50:35 11:54:47 73° 75° (ENE) 11:59:03 437.445
DX 1 04 Dec 11:57:11 12:00:04 17° 92° (E) 12:02:57 434.975-435.025
NANOSAT C BR1 04 Dec 11:57:59 12:01:51 33° 263° (W) 12:05:44 145.865
QB50P2 04 Dec 12:02:08 12:05:46 26° 265° (W) 12:09:24 145.880/145.840
POLYITAN 1 04 Dec 12:02:39 12:06:20 28° 264° (W) 12:10:03 437.675
UKube-1 04 Dec 12:08:26 12:11:13 17° 92° (E) 12:13:59 .
AO-85 04 Dec 12:11:38 12:15:19 37° 243° (WSW) 12:18:54 145.980
QB50P1 04 Dec 12:17:00 12:20:10 20° 267° (W) 12:23:22 145.935-145.965
ESTCUBE 1 04 Dec 12:20:06 12:24:34 61° 287° (WNW) 12:29:00 437.505/2401.250
DUCHIFAT 1 04 Dec 12:22:06 12:25:17 20° 267° (W) 12:28:30 145.980
50 SAT 04 Dec 12:23:02 12:26:30 50° 100° (E) 12:29:58 437.505
SPROUT 04 Dec 12:24:23 12:28:28 41° 98° (E) 12:32:31 437.525
GONETS M04 04 Dec 12:26:26 12:35:12 83° 82° (E) 12:43:57
Gurwin Techsat 1B 04 Dec 12:26:43 12:30:56 24° 63° (ENE) 12:35:09 435.225
AISAT 04 Dec 12:35:07 12:39:38 86° 104° (ESE) 12:44:06 437.250
POPSAT HIP 1 04 Dec 12:39:58 12:41:43 12° 270° (W) 12:43:29 437.405
PCSat 04 Dec 12:44:11 12:49:34 68° 302° (WNW) 12:55:00 145.827
Oscar 19 04 Dec 12:45:32 12:50:35 65° 73° (ENE) 12:55:42 437.125/150
BEESAT 3 04 Dec 12:53:24 12:54:58 12° 36° (NE) 12:56:31 437.485
AO-7 04 Dec 13:03:05 13:08:39 20° 48° (NE) 13:14:14 29.400- 29.500
CUBEBUG 1 04 Dec 13:07:00 13:10:57 32° 291° (WNW) 13:14:52 437.445
ITAMSAT 1 04 Dec 13:12:05 13:15:06 16° 59° (ENE) 13:18:06 435.822/435.867
VELOX 1 04 Dec 13:12:25 13:16:38 41° 289° (WNW) 13:20:49 145.980
BEESAT 2 04 Dec 13:18:39 13:19:42 11° 35° (NE) 13:20:45 435.950
Cosmos 2499 04 Dec 13:24:35 13:32:30 42° 274° (W) 13:39:57 435.465 / 435.565
DX 1 04 Dec 13:32:17 13:36:30 46° 289° (WNW) 13:40:41 434.975-435.025
UKube-1 04 Dec 13:43:19 13:47:29 46° 289° (WNW) 13:51:38 .
RS-15 04 Dec 13:46:06 13:56:15 28° 14° (NNE) 14:06:21 29.354- 29.394
TISAT 1 04 Dec 13:53:12 13:57:25 64° 101° (ESE) 14:01:35 437.305
M-CUBED/EXP-1 PRIME 04 Dec 13:55:12 13:57:40 14° 94° (E) 14:00:05 437.505
50 SAT 04 Dec 13:58:15 13:59:21 11° 297° (WNW) 14:00:29 437.505
SPROUT 04 Dec 14:01:03 14:04:06 19° 295° (WNW) 14:07:08 437.525
Gurwin Techsat 1B 04 Dec 14:05:28 14:10:34 47° 261° (W) 14:15:43 435.225
AISAT 04 Dec 14:14:10 14:15:23 11° 301° (WNW) 14:16:37 437.250
GONETS M04 04 Dec 14:24:57 14:30:53 21° 282° (WNW) 14:36:51
Oscar 19 04 Dec 14:27:21 14:30:23 16° 270° (W) 14:33:26 437.125/150
SWISSCUBE 04 Dec 14:27:21 14:31:37 32° 97° (E) 14:35:50 437.505
BEESAT 3 04 Dec 14:29:16 14:33:16 78° 55° (NE) 14:37:14 437.485
PCSat 04 Dec 14:31:04 14:34:01 15° 324° (NW) 14:36:58 145.827
BEESAT 04 Dec 14:31:38 14:35:52 31° 97° (E) 14:40:05 436.000
ITAMSAT 1 04 Dec 14:48:42 14:53:55 77° 257° (WSW) 14:59:10 435.822/435.867
AO-7 04 Dec 14:51:53 15:00:10 80° 69° (ENE) 15:08:32 29.400- 29.500
BEESAT 2 04 Dec 14:54:15 14:58:16 66° 54° (NE) 15:02:16 435.950
ITUPSAT 1 04 Dec 14:57:42 15:02:24 56° 101° (E) 15:07:04 437.325
AUBIESAT-1 04 Dec 15:17:14 15:21:54 79° 108° (ESE) 15:26:21 437.475
M-CUBED/EXP-1 PRIME 04 Dec 15:27:52 15:32:33 67° 291° (WNW) 15:37:05 437.505
TISAT 1 04 Dec 15:30:35 15:32:30 13° 299° (WNW) 15:34:25 437.305
O/OREOS (USA 219) 04 Dec 15:33:39 15:36:16 15° 99° (E) 15:38:53 437.305
BRITE-PL 04 Dec 15:37:35 15:40:13 16° 62° (ENE) 15:42:56 437.365/2234.400
MOZHAYETS 4 04 Dec 15:53:58 15:58:28 55° 100° (E) 16:02:56
RS-15 04 Dec 16:00:10 16:12:21 57° 45° (NE) 16:24:11 29.354- 29.394
SWISSCUBE 04 Dec 16:05:15 16:09:19 29° 293° (WNW) 16:13:21 437.505
BEESAT 04 Dec 16:09:29 16:13:34 29° 293° (WNW) 16:17:38 436.000
CUTE-I 04 Dec 16:12:55 16:15:10 13° 56° (ENE) 16:17:24 437.470
Cosmos 2491 04 Dec 16:31:33 16:36:18 15° 57° (ENE) 16:41:02 435.465 / 435.565
BEESAT 2 04 Dec 16:34:00 16:35:31 12° 251° (WSW) 16:37:03 435.950
Cubesat XI-IV 04 Dec 16:36:23 16:40:12 20° 61° (ENE) 16:44:01 437.490
ITUPSAT 1 04 Dec 16:36:39 16:39:46 18° 298° (WNW) 16:42:54 437.325
KKS-1 04 Dec 16:37:27 16:41:56 66° 102° (ESE) 16:46:22 437.445
NOAA 15 04 Dec 16:39:31 16:43:34 23° 63° (ENE) 16:47:37 137.62
AO-7 04 Dec 16:47:36 16:53:46 23° 268° (W) 16:59:59 29.400- 29.500
STARS 04 Dec 16:48:38 16:52:49 40° 98° (E) 16:56:58 437.465
HORYU 2 04 Dec 16:50:36 16:55:05 78° 76° (ENE) 16:59:35 437.375
ISS 04 Dec 16:51:52 16:54:49 31° 138° (SE) 16:57:47 145.825
AUBIESAT-1 04 Dec 16:53:16 16:55:38 14° 305° (NW) 16:57:57 437.475
GOMX 1 04 Dec 16:58:42 17:03:00 44° 71° (ENE) 17:07:38 467.674
LilacSat-2 04 Dec 17:03:10 17:06:21 25° 69° (ENE) 17:09:33 437.200
AIST 2 04 Dec 17:05:24 17:09:28 43° 51° (NE) 17:13:30 435.215
O/OREOS (USA 219) 04 Dec 17:10:42 17:15:11 56° 296° (WNW) 17:19:41 437.305
BRITE-PL 04 Dec 17:14:04 17:18:13 52° 262° (W) 17:22:39 437.365/2234.400
HO-68 04 Dec 17:15:37 17:19:19 15° 50° (NE) 17:23:00 435.675
DOVE 4 04 Dec 17:18:20 17:22:32 32° 67° (ENE) 17:26:59 437.250
CUBESAT XI-V 04 Dec 17:28:40 17:33:21 79° 104° (ESE) 17:38:01 437.345
MOZHAYETS 4 04 Dec 17:32:20 17:35:11 17° 297° (WNW) 17:38:02
NOAA 18 04 Dec 17:43:23 17:48:42 51° 69° (ENE) 17:54:05 137.9125
CUTE-I 04 Dec 17:48:59 17:54:21 83° 74° (ENE) 17:59:45 437.470
CANX-2 04 Dec 18:09:32 18:12:16 17° 65° (ENE) 18:14:59 2200.000
RS-15 04 Dec 18:13:10 18:24:50 52° 249° (WSW) 18:36:08 29.354- 29.394
Cubesat XI-IV 04 Dec 18:14:29 18:19:48 61° 259° (WSW) 18:25:08 437.490
KKS-1 04 Dec 18:15:37 18:17:57 14° 299° (WNW) 18:20:16 437.445
NOAA 15 04 Dec 18:17:57 18:23:00 49° 260° (W) 18:28:06 137.62
STARS 04 Dec 18:25:36 18:28:54 21° 295° (WNW) 18:32:11 437.465
Cosmos 2491 04 Dec 18:26:12 18:34:56 72° 80° (E) 18:43:38 435.465 / 435.565
ISS 04 Dec 18:28:09 18:31:16 39° 335° (NNW) 18:34:25 145.825
HORYU 2 04 Dec 18:31:24 18:32:10 10° 271° (W) 18:32:56 437.375
LilacSat-2 04 Dec 18:37:25 18:40:35 24° 265° (W) 18:43:45 437.200
GOMX 1 04 Dec 18:38:06 18:41:23 19° 270° (W) 18:44:49 467.674
SEEDS 04 Dec 18:38:12 18:41:15 20° 66° (ENE) 18:44:17 437.485
AIST 2 04 Dec 18:44:32 18:47:39 20° 248° (WSW) 18:50:45 435.215
STRAND 1 04 Dec 18:47:32 18:51:11 19° 92° (E) 18:54:48 437.568
CINEMA 3 04 Dec 18:48:39 18:53:30 66° 74° (ENE) 18:58:30 145.822/145.860
COMPASS 1 04 Dec 18:52:04 18:54:58 19° 66° (ENE) 18:57:53 437.405
YUBILEINY 04 Dec 18:55:17 19:03:23 45° 87° (E) 19:11:31 435.215
DOVE 4 04 Dec 18:56:01 19:00:11 30° 266° (W) 19:04:36 437.250
HO-68 04 Dec 18:58:40 19:05:45 69° 70° (ENE) 19:12:54 435.675
CUBESAT XI-V 04 Dec 19:08:07 19:10:05 13° 300° (WNW) 19:12:03 437.345
Cosmos 2504 04 Dec 19:12:11 19:18:57 28° 81° (E) 19:25:59 435.465 / 435.565
ZACube-1 04 Dec 19:15:40 19:18:02 14° 62° (ENE) 19:20:23 437.345
CUBEBUG 2 04 Dec 19:18:37 19:22:56 36° 70° (ENE) 19:27:16 437.445
FUNcube-1 04 Dec 19:24:00 19:26:41 16° 63° (ENE) 19:29:22 145.935
NOAA 18 04 Dec 19:25:19 19:29:38 23° 266° (W) 19:34:00 137.9125
CUTE 1.7 + AOD 2 04 Dec 19:25:49 19:30:01 85° 253° (WSW) 19:34:16 437.475
CUTE-I 04 Dec 19:32:41 19:35:03 13° 271° (W) 19:37:24 437.470
CANX-2 04 Dec 19:43:43 19:47:46 45° 261° (W) 19:51:50 2200.000
PCSat 04 Dec 19:48:30 19:52:39 22° 43° (NE) 19:56:47 145.827
Oscar 11 04 Dec 19:55:35 19:59:19 29° 69° (ENE) 20:03:03 145.826/435.025
AAUSAT CUBESAT 2 04 Dec 19:57:30 20:01:35 76° 77° (ENE) 20:05:42 437.432
UWE-3 04 Dec 20:04:17 20:08:55 68° 75° (ENE) 20:13:32 435.000/436.395/437.385
ISS 04 Dec 20:06:01 20:08:25 18° 355° (N) 20:10:50 145.825
SEEDS 04 Dec 20:12:50 20:16:42 36° 263° (W) 20:20:34 437.485
Cosmos 2491 04 Dec 20:24:18 20:30:53 25° 280° (W) 20:37:30 435.465 / 435.565
STRAND 1 04 Dec 20:25:42 20:30:40 52° 289° (WNW) 20:35:35 437.568
COMPASS 1 04 Dec 20:26:24 20:30:15 38° 262° (W) 20:34:07 437.405
CINEMA 3 04 Dec 20:28:15 20:31:05 15° 271° (W) 20:33:57 145.822/145.860
AIST 1 04 Dec 20:29:51 20:34:09 77° 278° (W) 20:38:31
SO-50 04 Dec 20:42:17 20:47:00 60° 120° (ESE) 20:51:39 436.795
HO-68 04 Dec 20:48:35 20:54:02 23° 268° (W) 20:59:32 435.675
ZACube-1 04 Dec 20:49:15 20:53:47 67° 259° (W) 20:58:17 437.345
YUBILEINY 04 Dec 20:52:07 21:00:13 42° 288° (WNW) 21:08:25 435.215
CUBEBUG 2 04 Dec 20:55:39 20:59:36 26° 266° (W) 21:03:32 437.445
HUMSAT D 04 Dec 20:56:34 21:00:04 26° 68° (ENE) 21:03:33 437.325/437.525
FUNcube-1 04 Dec 20:57:59 21:02:28 58° 260° (W) 21:06:55 145.935
CUSAT 1 04 Dec 20:58:26 21:01:55 79° 261° (W) 21:06:27 437.405
Cosmos 2504 04 Dec 21:03:20 21:11:35 66° 282° (WNW) 21:20:22 435.465 / 435.565
PRISM 04 Dec 21:04:42 21:08:23 30° 97° (E) 21:12:03 437.425
DELFI C3 04 Dec 21:10:19 21:14:13 68° 75° (ENE) 21:18:08 145.870
DANDE 04 Dec 21:29:22 21:32:00 43° 79° (E) 21:35:05 436.750
PCSat 04 Dec 21:31:11 21:36:36 71° 243° (WSW) 21:41:59 145.827
Oscar 11 04 Dec 21:31:47 21:35:25 26° 265° (W) 21:39:03 145.826/435.025
TIGRISAT 04 Dec 21:39:26 21:42:06 16° 91° (E) 21:44:43 435.000
ANTELSAT 04 Dec 21:40:17 21:43:11 17° 91° (E) 21:46:01 437.575/2403.000
ISS 04 Dec 21:42:58 21:45:44 24° 15° (NNE) 21:48:30 145.825
UWE-3 04 Dec 21:43:37 21:45:47 13° 271° (W) 21:47:57 435.000/436.395/437.385
ESTCUBE 1 04 Dec 21:45:45 21:48:17 15° 62° (ENE) 21:50:49 437.505/2401.250
SO-50 04 Dec 22:24:07 22:27:49 22° 319° (NW) 22:31:30 436.795
CUBEBUG 1 04 Dec 22:27:53 22:31:22 24° 66° (ENE) 22:34:53 437.445
HUMSAT D 04 Dec 22:31:57 22:35:36 28° 264° (W) 22:39:13 437.325/437.525
VELOX 1 04 Dec 22:35:03 22:38:17 20° 64° (ENE) 22:41:31 145.980
PRISM 04 Dec 22:40:11 22:43:32 24° 293° (WNW) 22:46:54 437.425
UNISAT 6 04 Dec 22:44:11 22:48:38 84° 106° (ESE) 22:52:57 437.425
JAS-2 04 Dec 22:47:39 22:51:08 18° 92° (E) 22:54:41 435.910
DX 1 04 Dec 22:53:48 22:56:41 18° 63° (ENE) 22:59:36 434.975-435.025
50 SAT 04 Dec 22:59:29 23:02:21 24° 69° (ENE) 23:05:12 437.505
Cosmos 2504 04 Dec 23:02:44 23:07:00 14° 305° (NW) 23:11:23 435.465 / 435.565
UKube-1 04 Dec 23:04:03 23:06:49 17° 63° (ENE) 23:09:35 .
TIGRISAT 04 Dec 23:14:49 23:19:06 49° 288° (WNW) 23:23:16 435.000
ANTELSAT 04 Dec 23:15:55 23:20:09 45° 289° (WNW) 23:24:16 437.575/2403.000
SPROUT 04 Dec 23:18:30 23:22:24 35° 70° (ENE) 23:26:21 437.525
ISS 04 Dec 23:19:14 23:22:34 86° 216° (SW) 23:25:53 145.825
ESTCUBE 1 04 Dec 23:20:11 23:24:35 60° 259° (W) 23:29:02 437.505/2401.250
AISAT 04 Dec 23:32:54 23:37:19 84° 73° (ENE) 23:41:47 437.250
GONETS M04 04 Dec 23:35:38 23:41:11 19° 77° (ENE) 23:46:43
NANOSAT C BR1 04 Dec 23:41:05 23:44:59 34° 97° (E) 23:48:50 145.865
QB50P2 04 Dec 23:45:20 23:49:26 45° 99° (E) 23:53:29 145.880/145.840
POLYITAN 1 04 Dec 23:45:56 23:50:00 42° 99° (E) 23:54:00 437.675
QB50P1 04 Dec 23:59:22 00:03:36 60° 101° (E) 00:07:45 145.935-145.965
CUBEBUG 1 05 Dec 00:03:33 00:07:29 33° 263° (W) 00:11:28 437.445
DUCHIFAT 1 05 Dec 00:03:52 00:08:04 58° 101° (E) 00:12:11 145.980
Cosmos 2499 05 Dec 00:08:14 00:15:42 35° 84° (E) 00:23:25 435.465 / 435.565
VELOX 1 05 Dec 00:10:17 00:14:26 41° 261° (W) 00:18:39 145.980
POPSAT HIP 1 05 Dec 00:20:44 00:25:00 80° 286° (WNW) 00:29:13 437.405
UNISAT 6 05 Dec 00:23:35 00:24:37 11° 301° (WNW) 00:25:38 437.425
DX 1 05 Dec 00:28:19 00:32:30 47° 260° (W) 00:36:45 434.975-435.025
JAS-2 05 Dec 00:31:34 00:36:38 55° 289° (WNW) 00:41:50 435.910
AUBIESAT-1 05 Dec 00:31:44 00:33:43 13° 54° (NE) 00:35:44 437.475
50 SAT 05 Dec 00:32:54 00:35:36 21° 265° (W) 00:38:18 437.505
UKube-1 05 Dec 00:38:18 00:42:28 49° 260° (W) 00:46:41 .
M-CUBED/EXP-1 PRIME 05 Dec 00:41:33 00:44:31 19° 58° (ENE) 00:47:38 437.505
TISAT 1 05 Dec 00:45:14 00:49:21 52° 72° (ENE) 00:53:31 437.305
SPROUT 05 Dec 00:55:07 00:58:25 21° 266° (W) 01:01:45 437.525
Oscar 19 05 Dec 00:56:52 01:00:47 21° 93° (E) 01:04:42 437.125/150
ISS 05 Dec 00:57:38 00:58:35 11° 230° (SW) 00:59:32 145.825
BUGSAT 1 05 Dec 01:06:43 01:10:56 73° 284° (WNW) 01:15:04 437.445
NANOSAT C BR1 05 Dec 01:17:15 01:20:29 22° 294° (WNW) 01:23:42 145.865
QB50P2 05 Dec 01:22:04 01:24:53 17° 296° (WNW) 01:27:41 145.880/145.840
POLYITAN 1 05 Dec 01:22:34 01:25:28 18° 296° (WNW) 01:28:21 437.675
GONETS M04 05 Dec 01:28:01 01:36:45 89° 275° (W) 01:45:31
SWISSCUBE 05 Dec 01:34:28 01:38:55 41° 70° (ENE) 01:43:24 437.505
QB50P1 05 Dec 01:36:44 01:38:51 14° 298° (WNW) 01:40:57 145.935-145.965
BEESAT 05 Dec 01:38:40 01:43:07 41° 69° (ENE) 01:47:36 436.000
O/OREOS (USA 219) 05 Dec 01:40:45 01:44:51 34° 60° (ENE) 01:48:56 437.305
DUCHIFAT 1 05 Dec 01:41:04 01:43:15 14° 298° (WNW) 01:45:26 145.980
Cosmos 2499 05 Dec 02:00:04 02:08:24 55° 284° (WNW) 02:17:08 435.465 / 435.565
PHONESAT 2.4 05 Dec 02:02:58 02:05:21 29° 165° (SSE) 02:07:45 2401.200-2431.200
AUBIESAT-1 05 Dec 02:03:21 02:07:26 75° 253° (WSW) 02:11:51 437.475
ITUPSAT 1 05 Dec 02:05:02 02:09:49 73° 74° (ENE) 02:14:36 437.325
M-CUBED/EXP-1 PRIME 05 Dec 02:14:42 02:18:36 45° 257° (WSW) 02:22:49 437.505
Gurwin Techsat 1B 05 Dec 02:20:25 02:25:43 64° 102° (ESE) 02:30:59 435.225
TISAT 1 05 Dec 02:23:02 02:25:18 14° 269° (W) 02:27:34 437.305
AO-85 05 Dec 02:25:32 02:30:20 52° 119° (ESE) 02:34:49 145.980
Oscar 19 05 Dec 02:35:21 02:40:21 49° 290° (WNW) 02:45:21 437.125/150
AO-7 05 Dec 02:53:27 02:59:56 24° 93° (E) 03:06:21 29.400- 29.500
MOZHAYETS 4 05 Dec 02:56:23 03:00:53 58° 73° (ENE) 03:05:24
ITAMSAT 1 05 Dec 03:00:53 03:05:37 35° 97° (E) 03:10:18 435.822/435.867
SWISSCUBE 05 Dec 03:13:10 03:16:52 22° 266° (W) 03:20:34 437.505
BEESAT 05 Dec 03:17:20 03:21:02 22° 266° (W) 03:24:46 436.000
O/OREOS (USA 219) 05 Dec 03:20:28 03:24:05 24° 257° (WSW) 03:27:41 437.305
GONETS M04 05 Dec 03:28:55 03:34:54 20° 299° (WNW) 03:40:55
SO-50 05 Dec 03:34:00 03:36:06 13° 33° (NNE) 03:38:12 436.795
KKS-1 05 Dec 03:35:59 03:40:25 67° 74° (ENE) 03:44:53 437.445
PHONESAT 2.4 05 Dec 03:37:48 03:40:23 48° 181° (S) 03:42:58 2401.200-2431.200
STARS 05 Dec 03:45:50 03:49:58 40° 70° (ENE) 03:54:08 437.465
ITUPSAT 1 05 Dec 03:46:09 03:48:09 12° 270° (W) 03:50:09 437.325
Cosmos 2499 05 Dec 04:00:59 04:03:54 12° 308° (NW) 04:06:52 435.465 / 435.565
Gurwin Techsat 1B 05 Dec 04:01:33 04:05:09 19° 299° (WNW) 04:08:44 435.225
AO-85 05 Dec 04:07:06 04:10:59 24° 315° (NW) 04:14:39 145.980
CUBESAT XI-V 05 Dec 04:32:33 04:37:08 83° 78° (ENE) 04:41:46 437.345
MOZHAYETS 4 05 Dec 04:35:52 04:38:25 15° 270° (W) 04:40:59
ITAMSAT 1 05 Dec 04:40:28 04:44:59 31° 294° (WNW) 04:49:28 435.822/435.867
HORYU 2 05 Dec 04:42:17 04:44:28 13° 91° (E) 04:46:38 437.375
AO-7 05 Dec 04:45:04 04:53:26 77° 292° (WNW) 05:01:47 29.400- 29.500
GOMX 1 05 Dec 05:00:11 05:03:27 16° 89° (E) 05:06:42 467.674
YUBILEINY 05 Dec 05:04:22 05:11:09 24° 63° (ENE) 05:17:55 435.215
Cosmos 2504 05 Dec 05:05:25 05:07:50 11° 51° (NE) 05:10:13 435.465 / 435.565
SO-50 05 Dec 05:12:56 05:17:28 67° 54° (NE) 05:21:54 436.795
PHONESAT 2.4 05 Dec 05:13:06 05:15:23 25° 197° (SSW) 05:17:39 2401.200-2431.200
KKS-1 05 Dec 05:15:39 05:17:26 12° 270° (W) 05:19:13 437.445
BRITE-PL 05 Dec 05:16:29 05:21:42 48° 98° (E) 05:27:08 437.365/2234.400
STARS 05 Dec 05:23:12 05:26:27 20° 266° (W) 05:29:45 437.465
Cosmos 2491 05 Dec 05:36:37 05:41:18 16° 75° (ENE) 05:45:57 435.465 / 435.565
BEESAT 3 05 Dec 05:57:13 06:01:06 78° 304° (NW) 06:05:03 437.485
STRAND 1 05 Dec 06:03:59 06:08:28 31° 66° (ENE) 06:12:58 437.568
NOAA 18 05 Dec 06:05:23 06:09:19 20° 92° (E) 06:13:13 137.9125
CUTE-I 05 Dec 06:05:32 06:10:13 30° 96° (E) 06:14:51 437.470
LilacSat-2 05 Dec 06:09:12 06:12:36 31° 97° (E) 06:15:59 437.200
HORYU 2 05 Dec 06:17:02 06:21:25 59° 287° (WNW) 06:25:45 437.375
BEESAT 2 05 Dec 06:23:46 06:27:43 88° 313° (NW) 06:31:44 435.950
RS-15 05 Dec 06:26:52 06:36:04 28° 101° (E) 06:45:31 29.354- 29.394
HO-68 05 Dec 06:29:35 06:31:00 11° 85° (E) 06:32:24 435.675
Cubesat XI-IV 05 Dec 06:30:46 06:35:59 51° 100° (E) 06:41:08 437.490
NOAA 15 05 Dec 06:31:49 06:37:02 58° 101° (E) 06:42:13 137.62
AIST 1 05 Dec 06:36:09 06:39:58 28° 74° (ENE) 06:43:46
GOMX 1 05 Dec 06:36:33 06:42:00 74° 285° (WNW) 06:47:28 467.674
AO-7 05 Dec 06:39:27 06:44:54 20° 312° (NW) 06:50:23 29.400- 29.500
CINEMA 3 05 Dec 06:44:10 06:46:59 15° 89° (E) 06:49:45 145.822/145.860
DOVE 4 05 Dec 06:52:56 06:58:17 74° 102° (ESE) 07:03:28 437.250
SO-50 05 Dec 06:55:00 06:57:21 14° 251° (WSW) 06:59:40 436.795
Cosmos 2504 05 Dec 06:55:03 07:03:41 54° 75° (ENE) 07:11:51 435.465 / 435.565
BRITE-PL 05 Dec 06:55:33 06:59:54 26° 294° (WNW) 07:04:24 437.365/2234.400
YUBILEINY 05 Dec 07:00:09 07:08:59 80° 265° (W) 07:17:49 435.215
CUTE 1.7 + AOD 2 05 Dec 07:10:57 07:13:29 15° 91° (E) 07:15:59 437.475
CANX-2 05 Dec 07:27:51 07:31:28 27° 95° (E) 07:35:04 2200.000
Cosmos 2491 05 Dec 07:27:51 07:36:38 80° 95° (E) 07:45:25 435.465 / 435.565
BEESAT 3 05 Dec 07:37:59 07:39:25 12° 324° (NW) 07:40:51 437.485
AAUSAT CUBESAT 2 05 Dec 07:41:02 07:42:13 11° 89° (E) 07:43:23 437.432
STRAND 1 05 Dec 07:42:57 07:47:34 33° 263° (W) 07:52:13 437.568
LilacSat-2 05 Dec 07:44:00 07:46:41 19° 293° (WNW) 07:49:21 437.200
NOAA 18 05 Dec 07:44:55 07:50:23 59° 289° (WNW) 07:55:46 137.9125
CUTE-I 05 Dec 07:45:26 07:50:17 36° 293° (WNW) 07:55:05 437.470
PRISM 05 Dec 07:55:05 07:58:23 24° 67° (ENE) 08:01:43 437.425
UWE-3 05 Dec 07:55:20 07:56:59 12° 89° (E) 07:58:37 435.000/436.395/437.385
SEEDS 05 Dec 07:55:28 07:59:14 32° 96° (E) 08:02:59 437.485
BEESAT 2 05 Dec 08:04:15 08:06:07 13° 323° (NW) 08:08:00 435.950
COMPASS 1 05 Dec 08:08:03 08:11:42 29° 96° (E) 08:15:22 437.405
Cubesat XI-IV 05 Dec 08:11:35 08:15:42 23° 297° (WNW) 08:19:48 437.490
NOAA 15 05 Dec 08:12:35 08:16:21 20° 299° (WNW) 08:20:08 137.62
HO-68 05 Dec 08:12:48 08:20:00 67° 103° (ESE) 08:27:08 435.675
AIST 1 05 Dec 08:13:48 08:17:28 26° 271° (W) 08:21:06
GOMX 1 05 Dec 08:17:20 08:19:08 12° 303° (WNW) 08:20:57 467.674
CINEMA 3 05 Dec 08:19:46 08:24:33 59° 287° (WNW) 08:29:07 145.822/145.860
DOVE 4 05 Dec 08:32:03 08:35:18 17° 299° (WNW) 08:38:30 437.250
RS-15 05 Dec 08:35:12 08:47:02 85° 304° (NW) 08:59:27 29.354- 29.394
ZACube-1 05 Dec 08:37:31 08:40:47 21° 93° (E) 08:43:58 437.345
TIGRISAT 05 Dec 08:38:44 08:41:52 18° 64° (ENE) 08:45:00 435.000
ANTELSAT 05 Dec 08:39:43 08:43:01 19° 64° (ENE) 08:46:19 437.575/2403.000
AIST 2 05 Dec 08:41:27 08:45:30 67° 121° (ESE) 08:49:39 435.215
CUBEBUG 2 05 Dec 08:44:51 08:49:16 67° 100° (E) 08:53:31 437.445
CUTE 1.7 + AOD 2 05 Dec 08:45:31 08:49:34 47° 287° (WNW) 08:53:36 437.475
FUNcube-1 05 Dec 08:45:43 08:49:08 24° 94° (E) 08:52:31 145.935
Cosmos 2504 05 Dec 08:48:59 08:56:41 36° 276° (W) 09:04:04 435.465 / 435.565
YUBILEINY 05 Dec 08:59:31 09:04:16 16° 285° (WNW) 09:09:03 435.215
CANX-2 05 Dec 09:03:43 09:07:15 26° 292° (WNW) 09:10:47 2200.000
JAS-2 05 Dec 09:04:13 09:05:50 11° 56° (NE) 09:07:25 435.910
AAUSAT CUBESAT 2 05 Dec 09:13:59 09:18:05 63° 285° (WNW) 09:22:11 437.432
Oscar 11 05 Dec 09:17:07 09:21:21 51° 100° (E) 09:25:32 145.826/435.025
Cosmos 2491 05 Dec 09:27:49 09:34:30 24° 297° (WNW) 09:41:13 435.465 / 435.565
UWE-3 05 Dec 09:29:36 09:33:54 61° 286° (WNW) 09:38:03 435.000/436.395/437.385
PRISM 05 Dec 09:30:04 09:33:35 28° 264° (W) 09:37:07 437.425
SEEDS 05 Dec 09:31:29 09:34:46 23° 293° (WNW) 09:38:02 437.485
UNISAT 6 05 Dec 09:43:04 09:47:46 81° 78° (ENE) 09:52:27 437.425
COMPASS 1 05 Dec 09:43:47 09:47:08 24° 292° (WNW) 09:50:29 437.405
Cosmos 2499 05 Dec 10:00:02 10:03:52 13° 53° (NE) 10:07:35 435.465 / 435.565
HO-68 05 Dec 10:01:23 10:07:09 27° 302° (WNW) 10:12:53 435.675
CUSAT 1 05 Dec 10:03:18 10:06:34 70° 280° (W) 10:09:20 437.405
ZACube-1 05 Dec 10:13:19 10:17:09 33° 290° (WNW) 10:20:54 437.345
TIGRISAT 05 Dec 10:13:33 10:18:09 53° 260° (W) 10:22:43 435.000
HUMSAT D 05 Dec 10:13:43 10:17:34 40° 98° (E) 10:21:24 437.325/437.525
ANTELSAT 05 Dec 10:14:49 10:19:22 49° 261° (W) 10:23:54 437.575/2403.000
DELFI C3 05 Dec 10:21:12 10:25:11 81° 284° (WNW) 10:29:10 145.870
AIST 2 05 Dec 10:21:41 10:24:25 17° 320° (NW) 10:27:12 435.215
FUNcube-1 05 Dec 10:21:42 10:25:23 30° 291° (WNW) 10:29:00 145.935
CUBEBUG 2 05 Dec 10:23:16 10:25:17 13° 299° (WNW) 10:27:16 437.445
NANOSAT C BR1 05 Dec 10:33:55 10:37:37 30° 69° (ENE) 10:41:20 145.865
PCSat 05 Dec 10:34:01 10:36:09 12° 102° (ESE) 10:38:16 145.827
